ICEYE-X43

Last updated on Mon Sep 16 2024 00:02:03 GMT+0000 (Coordinated Universal Time)

1 60539U 24149BZ 24259.20039157 .00009658 00000+0 94498-3 0 9996 2 60539 97.7420 334.1888 0004494 56.8393 303.3257 14.92516827 4376
UTC large
Height (km)
Speed (km/s)
/
Latitude / Longitude
Inclination (degrees)
Orbital Period (minutes)
Azimuth
Elevation
Range (km)
Doppler Factor

Next 0 passes for location: London (51.5072 / 0.1276)

Sorry there are no passes over London.